Wind_Speed
48 49 49 49 50 50 51 51 50 50 50 50 50 50 50 51 51 52 52 51 51 51 51 50 50 50 51 52 53 52 53 54 55 55 55 54 54 55 54 54 55 55 55
48 49 50 50 50 51 51 51 50 50 49 49 49 48 49 49 50 51 52 52 51 51 51 51 51 51 51 51 51 52 52 53 54 54 54 54 54 54 54 55 55 55 55
49 50 51 51 51 52 51 51 51 50 49 49 48 47 48 48 49 49 50 51 50 50 51 52 52 51 50 50 51 50 51 53 54 54 54 54 53 53 54 54 55 56 55
51 51 52 51 51 51 51 51 50 49 48 48 47 47 47 48 48 47 48 49 49 48 49 49 50 51 50 50 51 50 50 52 53 54 54 54 53 52 52 52 53 54 54
51 51 51 51 51 51 50 49 48 48 47 47 46 47 46 46 47 47 46 46 47 46 46 47 49 50 50 50 51 50 50 50 51 52 52 53 52 52 52 52 52 52 53
51 50 50 50 50 49 48 46 46 46 46 46 45 45 45 44 44 45 45 44 44 45 45 46 47 48 48 49 50 50 49 49 50 50 50 51 51 52 52 52 52 53 53
48 48 48 48 47 46 45 45 45 45 45 45 45 44 44 44 43 43 43 43 44 45 44 44 45 47 47 48 49 49 48 48 47 47 48 48 48 49 51 52 52 52 54
47 46 46 45 45 44 44 43 43 43 43 43 43 43 43 43 43 43 43 42 42 43 43 43 43 44 46 47 47 47 46 46 45 46 47 47 47 47 48 49 50 51 52
46 45 45 44 44 43 43 42 42 41 41 41 40 40 40 40 40 41 41 41 41 42 42 42 41 42 43 45 45 45 45 45 45 45 46 46 46 47 47 47 48 50 50
44 43 43 43 43 42 42 41 41 40 39 38 38 37 37 37 38 39 40 40 40 40 40 41 40 40 41 43 43 43 43 43 43 43 44 45 45 45 46 46 46 48 49
43 43 42 42 41 41 40 40 39 38 37 36 36 36 36 36 36 37 38 37 37 37 38 39 40 40 40 42 42 42 42 42 42 42 42 43 44 44 45 45 46 47 47
42 41 41 40 40 39 39 38 37 36 35 35 34 34 35 35 36 36 37 37 37 37 37 38 39 40 40 41 43 43 43 43 42 42 42 42 43 43 44 44 45 46 46
39 39 39 39 38 38 37 36 35 35 34 33 33 34 34 35 35 35 36 36 36 36 36 36 37 39 39 40 41 42 43 43 42 42 41 42 43 43 43 43 44 45 46
37 37 37 37 37 36 36 35 34 33 32 32 33 33 33 34 34 35 35 35 36 36 35 35 36 38 39 39 40 42 43 43 43 42 41 40 41 41 41 42 43 44 45
36 36 36 36 35 34 34 33 33 32 32 31 31 31 31 32 32 33 34 34 35 35 35 35 35 36 38 39 39 41 43 43 43 42 41 40 40 41 41 42 43 43 44
35 35 35 34 34 33 32 31 31 31 32 32 31 31 31 31 31 31 31 32 33 34 34 34 34 35 36 37 38 39 41 42 42 41 41 41 41 41 41 41 42 42 42
34 34 34 33 32 31 31 30 30 30 31 31 31 31 31 30 30 30 30 30 31 32 33 33 33 34 35 35 36 37 38 40 41 41 41 42 42 41 41 41 41 42 42
33 33 32 32 31 30 30 30 30 29 29 29 29 30 30 30 29 30 30 31 31 31 32 32 33 33 33 34 34 35 36 37 38 40 41 41 41 41 41 40 40 41 41
31 31 31 30 30 30 30 30 29 29 29 28 29 29 29 29 29 29 30 30 30 31 31 31 32 32 33 33 34 34 35 35 36 37 38 39 40 40 40 40 40 39 40
30 30 29 29 29 29 30 29 29 28 28 28 28 28 27 27 28 28 29 29 29 30 30 30 30 31 32 33 33 33 34 35 35 35 36 37 38 39 39 40 40 40 40
29 28 28 28 29 29 28 28 27 27 27 27 27 26 26 26 26 26 27 27 28 28 29 29 29 30 30 31 32 33 33 33 34 34 34 35 35 36 37 38 39 39 40
27 27 27 28 28 28 28 27 27 27 26 25 25 24 24 23 23 24 24 24 25 26 27 28 29 29 29 30 30 31 32 32 33 33 33 33 33 34 34 35 36 37 38
27 27 27 28 28 28 28 27 27 27 26 25 24 23 23 22 22 21 21 22 22 23 24 25 25 26 27 28 29 29 30 31 31 32 32 32 33 33 33 33 34 35 36
26 27 27 27 27 27 27 27 26 26 25 24 23 22 21 21 21 21 20 20 21 22 22 23 23 24 25 26 27 28 29 29 30 30 30 30 31 32 32 32 33 34 34
26 26 26 26 26 26 26 26 25 24 23 22 22 21 21 20 20 20 20 21 21 22 22 22 22 23 24 24 25 26 26 27 28 28 28 29 30 31 31 32 32 32 33
25 26 26 26 26 25 25 25 24 23 22 22 21 20 20 19 19 19 20 20 21 21 21 21 21 22 22 23 23 24 24 25 26 27 27 28 28 29 30 31 31 32 32
Wind_Direction
289 288 287 287 287 286 284 283 281 280 278 276 274 272 270 268 266 264 263 261 259 258 257 256 255 254 253 251 250 250 250 249 248 246 247 247 247 246 247 247 247 246 245
289 289 288 288 287 286 285 284 281 280 279 277 274 273 271 269 267 265 263 261 259 258 256 255 254 253 253 252 251 250 250 249 249 247 247 247 247 247 247 246 246 246 246
289 289 289 288 288 287 285 284 282 281 279 277 275 273 271 269 267 264 262 260 259 259 258 256 254 253 252 252 251 250 250 250 249 248 248 248 248 248 248 246 246 246 246
290 290 289 289 288 287 285 284 282 281 279 277 274 272 271 269 268 265 263 261 259 259 258 256 254 252 252 251 251 250 250 250 249 249 248 248 248 248 248 247 246 246 245
290 290 290 289 288 288 286 284 281 280 279 277 276 274 272 269 267 265 263 261 259 258 258 256 254 252 251 251 250 249 250 249 249 249 249 248 247 247 248 247 246 245 244
291 291 290 289 289 288 287 285 282 281 280 277 275 273 271 269 267 266 263 260 259 258 256 255 253 252 251 250 249 249 249 249 249 248 248 247 247 247 247 248 247 245 244
292 292 291 291 290 289 287 285 283 282 280 278 275 273 271 269 267 266 264 261 259 257 255 253 252 251 250 250 249 249 249 249 247 246 246 246 246 247 248 248 247 246 245
293 293 293 292 291 289 287 286 285 283 281 279 275 272 270 267 266 265 263 261 259 257 255 252 251 250 249 248 248 248 247 246 245 245 245 245 244 245 247 248 247 246 246
294 294 293 293 292 290 289 287 286 286 284 280 276 272 270 268 265 264 262 261 260 258 256 254 251 250 248 247 246 246 245 244 244 245 245 245 245 246 247 247 247 246 246
294 294 294 294 293 292 291 289 288 287 285 282 277 272 270 267 265 264 263 261 260 258 256 254 252 250 247 245 244 244 243 243 243 244 244 245 246 247 247 248 247 247 246
294 295 295 295 294 293 292 290 288 287 285 282 278 274 270 268 266 265 263 262 260 259 257 255 254 251 248 246 244 243 242 242 242 244 245 245 245 246 246 247 247 248 248
294 294 295 295 294 293 292 291 289 287 285 281 277 274 271 268 267 265 263 262 260 259 258 256 254 252 249 246 245 245 244 244 244 245 246 246 245 246 246 247 248 249 249
295 296 296 296 295 294 292 290 289 288 285 281 277 274 272 269 267 265 262 260 259 259 258 257 254 252 250 248 247 245 244 244 245 246 247 246 246 247 247 248 248 248 248
295 296 297 297 297 296 293 291 289 287 286 283 279 276 273 269 267 265 262 260 258 258 257 256 254 252 251 250 248 247 246 246 247 247 247 248 247 247 247 247 248 249 248
296 297 297 296 296 296 295 292 290 287 286 284 280 277 273 270 267 265 262 260 257 256 256 256 254 253 252 251 249 248 247 247 247 246 247 248 248 248 248 249 249 249 249
297 297 297 296 296 296 295 294 292 290 287 284 282 280 276 273 268 265 263 261 258 256 255 255 254 254 253 252 249 247 247 246 247 246 247 248 248 248 249 250 249 249 249
297 297 297 297 297 296 296 294 293 291 289 286 283 281 278 274 269 265 263 262 260 257 256 255 254 253 253 252 250 247 246 247 247 247 248 248 248 248 248 248 249 248 248
298 298 298 298 298 298 297 297 295 293 290 288 286 283 279 274 270 265 263 262 260 259 257 256 254 253 251 250 249 247 246 246 247 247 247 248 248 248 248 248 248 248 248
298 298 298 298 298 298 298 298 297 295 291 289 287 284 280 275 270 266 264 261 260 259 257 256 254 252 250 249 248 248 247 246 247 247 247 247 248 248 248 248 249 249 248
298 298 298 299 300 300 300 299 298 297 294 292 289 285 281 275 271 268 265 262 260 258 257 256 255 252 251 249 249 248 248 247 247 247 248 248 248 248 249 249 249 248 248
299 299 299 301 301 301 301 300 299 298 296 295 291 287 282 277 272 268 264 261 260 259 256 255 254 253 251 250 248 248 247 247 247 247 247 247 248 248 248 248 248 248 247
299 300 302 302 303 303 302 301 300 299 298 296 293 288 283 279 274 269 264 262 261 260 257 254 253 252 251 249 248 247 247 246 246 246 246 246 247 247 247 247 247 248 248
299 301 301 302 303 303 302 302 301 299 298 295 292 288 283 278 275 271 265 262 260 259 256 254 253 252 250 248 246 245 245 245 246 246 246 246 246 247 247 246 246 246 246
300 302 303 303 303 303 304 303 302 300 297 294 290 286 282 277 274 270 267 264 263 261 258 256 255 254 251 249 246 245 245 245 246 247 246 246 245 245 245 245 246 247 247
302 304 304 304 304 304 305 304 303 301 299 295 290 284 280 276 272 268 266 265 264 262 259 256 255 255 252 249 246 245 246 246 245 246 246 245 245 246 245 246 247 248 249
304 305 306 307 306 305 305 305 304 302 300 296 292 286 279 275 271 268 265 263 263 262 259 257 255 254 252 248 245 245 245 245 245 244 244 245 245 245 245 246 247 248 249
Height
5589 5586 5582 5579 5576 5573 5570 5567 5565 5563 5561 5560 5559 5558 5557 5558 5558 5560 5561 5563 5565 5567 5570 5572 5575 5578 5581 5584 5588 5592 5595 5600 5605 5611 5615 5619 5623 5627 5631 5636 5640 5645 5650
5576 5573 5569 5565 5562 5559 5556 5553 5550 5548 5546 5545 5544 5543 5543 5543 5543 5544 5546 5548 5550 5552 5555 5557 5561 5563 5566 5570 5573 5577 5581 5585 5590 5595 5600 5604 5608 5612 5616 5620 5625 5630 5635
5563 5559 5555 5552 5548 5545 5541 5538 5535 5533 5532 5530 5529 5529 5529 5528 5528 5529 5531 5533 5535 5537 5540 5542 5546 5549 5552 5555 5558 5562 5566 5570 5574 5579 5585 5588 5592 5596 5600 5605 5609 5614 5619
5549 5545 5541 5537 5534 5530 5527 5523 5521 5518 5517 5515 5515 5514 5514 5514 5514 5515 5516 5518 5520 5522 5525 5527 5530 5534 5538 5541 5544 5548 5551 5555 5559 5564 5569 5573 5576 5581 5585 5589 5594 5599 5604
5535 5531 5527 5523 5519 5516 5512 5509 5506 5504 5503 5501 5501 5500 5500 5500 5500 5500 5502 5504 5506 5508 5510 5513 5516 5519 5523 5526 5530 5533 5537 5541 5545 5549 5553 5558 5562 5566 5571 5575 5579 5584 5589
5522 5518 5513 5509 5505 5502 5498 5495 5493 5490 5489 5488 5487 5486 5486 5486 5486 5486 5488 5490 5492 5494 5497 5499 5502 5505 5508 5512 5515 5519 5523 5526 5531 5535 5539 5544 5548 5552 5556 5560 5565 5570 5577
5508 5504 5500 5496 5492 5488 5485 5482 5480 5477 5475 5474 5473 5473 5472 5472 5473 5473 5474 5476 5479 5481 5483 5485 5488 5491 5495 5498 5502 5505 5509 5512 5517 5521 5526 5530 5535 5539 5543 5548 5551 5555 5562
5496 5491 5487 5483 5479 5475 5472 5469 5466 5464 5462 5460 5459 5459 5459 5459 5460 5461 5462 5464 5465 5467 5469 5472 5475 5478 5481 5485 5488 5492 5496 5500 5504 5508 5513 5518 5521 5525 5529 5533 5537 5542 5547
5483 5479 5475 5471 5467 5463 5460 5457 5454 5452 5449 5447 5446 5446 5446 5446 5447 5448 5449 5451 5454 5455 5457 5459 5462 5465 5468 5472 5476 5480 5484 5488 5491 5495 5499 5503 5508 5512 5516 5520 5524 5529 5534
5471 5467 5463 5459 5455 5451 5448 5445 5442 5439 5437 5435 5434 5434 5434 5435 5435 5436 5438 5440 5442 5444 5446 5448 5450 5453 5455 5459 5463 5467 5471 5475 5479 5483 5487 5491 5495 5499 5503 5507 5511 5516 5520
5459 5455 5451 5447 5443 5440 5436 5433 5430 5428 5426 5424 5423 5423 5423 5424 5425 5425 5426 5428 5430 5432 5434 5436 5438 5440 5443 5447 5451 5455 5459 5463 5467 5471 5475 5479 5483 5487 5491 5495 5499 5503 5508
5448 5444 5440 5436 5432 5428 5425 5422 5419 5417 5415 5414 5413 5413 5413 5413 5414 5414 5415 5417 5419 5421 5423 5425 5427 5429 5432 5435 5439 5444 5447 5451 5455 5459 5463 5467 5471 5475 5479 5483 5487 5490 5495
5437 5433 5429 5425 5421 5418 5414 5411 5409 5407 5405 5404 5403 5403 5403 5402 5403 5403 5405 5406 5408 5410 5412 5414 5416 5418 5421 5424 5428 5432 5435 5440 5444 5448 5452 5456 5460 5463 5467 5471 5474 5478 5482
5426 5423 5419 5415 5411 5407 5404 5401 5399 5397 5395 5394 5393 5393 5392 5392 5392 5393 5394 5395 5397 5399 5401 5403 5405 5408 5410 5413 5416 5420 5424 5428 5432 5437 5441 5445 5448 5451 5455 5459 5462 5465 5469
5416 5413 5409 5406 5402 5398 5395 5392 5390 5388 5386 5385 5384 5383 5383 5382 5382 5383 5383 5385 5386 5388 5390 5392 5395 5397 5399 5402 5405 5409 5412 5417 5421 5425 5429 5433 5437 5440 5444 5447 5450 5454 5457
5406 5403 5399 5396 5393 5389 5386 5383 5380 5378 5376 5375 5373 5373 5372 5372 5372 5372 5373 5374 5375 5377 5379 5382 5384 5386 5389 5392 5394 5397 5401 5405 5409 5414 5418 5421 5425 5429 5432 5435 5438 5442 5445
5397 5393 5390 5387 5383 5380 5377 5375 5373 5370 5367 5365 5364 5363 5362 5362 5362 5362 5363 5364 5365 5367 5369 5371 5373 5376 5379 5381 5384 5387 5391 5394 5398 5402 5406 5410 5413 5417 5420 5424 5427 5430 5434
5388 5384 5381 5378 5375 5372 5369 5366 5364 5361 5359 5357 5355 5353 5352 5352 5352 5353 5353 5354 5356 5357 5359 5361 5363 5366 5368 5371 5374 5376 5380 5384 5387 5391 5394 5398 5401 5405 5408 5412 5415 5419 5422
5379 5376 5372 5369 5366 5363 5361 5358 5355 5353 5350 5349 5347 5345 5343 5343 5343 5343 5344 5345 5346 5348 5349 5351 5353 5356 5358 5361 5364 5366 5369 5373 5376 5380 5383 5387 5390 5394 5397 5400 5404 5407 5410
5370 5367 5364 5361 5358 5355 5352 5350 5347 5344 5342 5340 5338 5336 5335 5334 5334 5334 5334 5335 5337 5338 5340 5342 5344 5346 5348 5351 5354 5356 5359 5363 5366 5369 5373 5376 5379 5382 5386 5389 5392 5396 5400
5363 5360 5356 5354 5351 5347 5344 5342 5339 5336 5334 5332 5329 5328 5326 5326 5325 5325 5326 5326 5328 5329 5331 5333 5335 5337 5339 5341 5344 5347 5349 5353 5356 5359 5362 5366 5369 5372 5375 5378 5381 5385 5389
5355 5352 5349 5346 5343 5340 5337 5334 5331 5329 5326 5324 5322 5320 5318 5318 5317 5317 5318 5318 5319 5320 5322 5323 5325 5327 5330 5332 5334 5337 5340 5343 5346 5350 5353 5356 5359 5362 5365 5368 5371 5374 5378
5348 5345 5342 5339 5336 5333 5330 5327 5324 5321 5318 5316 5314 5312 5311 5310 5310 5310 5310 5311 5312 5313 5314 5315 5317 5319 5321 5323 5325 5328 5331 5334 5337 5340 5343 5346 5349 5352 5355 5358 5361 5365 5368
5340 5338 5335 5332 5328 5325 5322 5319 5316 5313 5311 5308 5307 5305 5304 5303 5303 5303 5304 5304 5305 5305 5306 5308 5309 5311 5313 5315 5317 5320 5323 5325 5328 5331 5334 5337 5340 5343 5346 5349 5352 5355 5358
5333 5331 5327 5324 5321 5318 5315 5312 5309 5306 5303 5301 5299 5298 5297 5297 5296 5297 5297 5297 5298 5298 5299 5301 5302 5304 5305 5307 5309 5312 5315 5317 5320 5323 5325 5328 5331 5334 5337 5340 5343 5346 5349
5326 5323 5320 5317 5314 5311 5308 5305 5302 5299 5297 5294 5292 5291 5290 5290 5290 5290 5290 5291 5291 5292 5293 5294 5296 5297 5298 5300 5302 5305 5307 5309 5312 5315 5318 5321 5323 5326 5329 5331 5334 5337 5339